Location: Bidart
(43.4376°N, 1.5913°W)
Time: 16:58:58
(UTC+00:00)

CZ-2C R/B - Pass Details

Date: 19 May 2025
Orbit: 631 x 693 km, 98.1° (Epoch: 12 June)

Event Time Altitude Azimuth Distance (km) Brightness Sun altitude
Rises 23:15:19 0° 9° (N) 2,935 8.1 -25.6°
Reaches altitude 10° 23:17:32 10° 5° (N) 2,021 7.1 -25.7°
Enters shadow 23:21:50 57° 288° (WNW) 745 4.0 -25.9°
